Time,TemperatureF,DewpointF,PressureIn,WindDirection,WindDirectionDegrees,WindSpeedMPH,WindSpeedGustMPH,Humidity,HourlyPrecipIn,Conditions,Clouds,dailyrainin,SolarRadiationWatts/m^2,SoftwareType,DateUTC
2013-03-15 00:01:00,22.8,11.0,29.84,West,268,4.0,4.0,60,0.00,,,0.00,0,Wunderground v.1.15,2013-03-15 04:01:00,
2013-03-15 00:05:00,22.7,10.5,29.84,ENE,65,4.0,4.0,59,0.00,,,0.00,0,Wunderground v.1.15,2013-03-15 04:05:00,
2013-03-15 00:07:00,22.8,11.0,29.84,WNW,300,1.0,4.0,60,0.00,,,0.00,0,Wunderground v.1.15,2013-03-15 04:07:00,
2013-03-15 00:12:00,22.7,11.3,29.84,North,5,3.0,3.0,61,0.00,,,0.00,0,Wunderground v.1.15,2013-03-15 04:12:00,
2013-03-15 00:17:00,22.7,11.3,29.85,WNW,296,2.0,3.0,61,0.00,,,0.00,0,Wunderground v.1.15,2013-03-15 04:17:00,
2013-03-15 00:28:00,22.6,11.5,29.84,WNW,286,2.0,3.0,62,0.00,,,0.00,0,Wunderground v.1.15,2013-03-15 04:28:00,
2013-03-15 00:37:00,22.6,11.5,29.84,West,269,3.0,3.0,62,0.00,,,0.00,0,Wunderground v.1.15,2013-03-15 04:37:00,
2013-03-15 00:43:00,22.6,11.9,29.84,West,269,1.0,2.0,63,0.00,,,0.00,0,Wunderground v.1.15,2013-03-15 04:43:00,
2013-03-15 00:49:00,22.6,11.9,29.84,West,269,1.0,2.0,63,0.00,,,0.00,0,Wunderground v.1.15,2013-03-15 04:49:00,
2013-03-15 00:54:00,22.6,11.9,29.84,WNW,293,3.0,3.0,63,0.00,,,0.00,0,Wunderground v.1.15,2013-03-15 04:54:00,
2013-03-15 01:00:00,22.6,12.2,29.84,WNW,292,0.0,2.0,64,0.00,,,0.00,0,Wunderground v.1.15,2013-03-15 05:00:00,
2013-03-15 01:05:00,22.5,12.1,29.84,WNW,284,2.0,2.0,64,0.00,,,0.00,0,Wunderground v.1.15,2013-03-15 05:05:00,
2013-03-15 01:10:00,22.5,12.1,29.84,WNW,284,1.0,2.0,64,0.00,,,0.00,0,Wunderground v.1.15,2013-03-15 05:10:00,
2013-03-15 01:15:00,22.5,12.5,29.84,ESE,103,3.0,3.0,65,0.00,,,0.00,0,Wunderground v.1.15,2013-03-15 05:15:00,
2013-03-15 01:21:00,22.5,12.1,29.85,West,266,0.0,3.0,64,0.00,,,0.00,0,Wunderground v.1.15,2013-03-15 05:21:00,
2013-03-15 01:27:00,22.6,11.9,29.85,WSW,250,1.0,3.0,63,0.00,,,0.00,0,Wunderground v.1.15,2013-03-15 05:27:00,
2013-03-15 01:33:00,22.6,12.6,29.85,NW,323,0.0,3.0,65,0.00,,,0.00,0,Wunderground v.1.15,2013-03-15 05:33:00,
2013-03-15 01:40:00,22.7,12.7,29.85,WNW,288,0.0,1.0,65,0.00,,,0.00,0,Wunderground v.1.15,2013-03-15 05:40:00,
2013-03-15 01:45:00,22.8,12.8,29.85,WNW,288,2.0,4.0,65,0.00,,,0.00,0,Wunderground v.1.15,2013-03-15 05:45:00,
2013-03-15 01:52:00,22.9,13.2,29.85,North,349,2.0,2.0,66,0.00,,,0.00,0,Wunderground v.1.15,2013-03-15 05:52:00,
2013-03-15 01:57:00,23.0,13.3,29.85,North,355,2.0,3.0,66,0.00,,,0.00,0,Wunderground v.1.15,2013-03-15 05:57:00,
2013-03-15 02:03:00,23.0,13.0,29.85,North,350,1.0,2.0,65,0.00,,,0.00,0,Wunderground v.1.15,2013-03-15 06:03:00,
2013-03-15 02:08:00,23.1,13.4,29.85,North,350,1.0,2.0,66,0.00,,,0.00,0,Wunderground v.1.15,2013-03-15 06:08:00,
2013-03-15 02:13:00,23.1,13.1,29.85,WNW,300,3.0,6.0,65,0.00,,,0.00,0,Wunderground v.1.15,2013-03-15 06:13:00,
2013-03-15 02:18:00,23.1,13.1,29.85,West,264,2.0,11.0,65,0.00,,,0.00,0,Wunderground v.1.15,2013-03-15 06:18:00,
2013-03-15 02:23:00,23.2,13.2,29.85,North,5,0.0,4.0,65,0.00,,,0.00,0,Wunderground v.1.15,2013-03-15 06:23:00,
2013-03-15 02:28:00,23.2,13.5,29.85,NNW,346,3.0,5.0,66,0.00,,,0.00,0,Wunderground v.1.15,2013-03-15 06:28:00,
2013-03-15 02:33:00,23.2,13.2,29.85,NNE,32,0.0,7.0,65,0.00,,,0.00,0,Wunderground v.1.15,2013-03-15 06:33:00,
2013-03-15 02:38:00,23.2,13.2,29.85,North,351,1.0,7.0,65,0.00,,,0.00,0,Wunderground v.1.15,2013-03-15 06:38:00,
2013-03-15 02:43:00,23.2,13.2,29.85,WNW,284,3.0,5.0,65,0.00,,,0.00,0,Wunderground v.1.15,2013-03-15 06:43:00,
2013-03-15 02:48:00,23.1,13.1,29.85,NNW,342,5.0,5.0,65,0.00,,,0.00,0,Wunderground v.1.15,2013-03-15 06:48:00,
2013-03-15 02:53:00,23.1,13.1,29.85,West,261,2.0,7.0,65,0.00,,,0.00,0,Wunderground v.1.15,2013-03-15 06:53:00,
2013-03-15 02:59:00,23.1,12.7,29.84,WNW,286,2.0,12.0,64,0.00,,,0.00,0,Wunderground v.1.15,2013-03-15 06:59:00,
2013-03-15 03:04:00,23.0,13.0,29.84,NW,304,2.0,4.0,65,0.00,,,0.00,0,Wunderground v.1.15,2013-03-15 07:04:00,
2013-03-15 03:09:00,22.9,12.5,29.84,North,351,0.0,10.0,64,0.00,,,0.00,0,Wunderground v.1.15,2013-03-15 07:09:00,
2013-03-15 03:14:00,22.8,12.8,29.84,West,277,2.0,6.0,65,0.00,,,0.00,0,Wunderground v.1.15,2013-03-15 07:14:00,
2013-03-15 03:19:00,22.7,12.7,29.84,West,276,2.0,6.0,65,0.00,,,0.00,0,Wunderground v.1.15,2013-03-15 07:19:00,
2013-03-15 03:25:00,22.6,12.6,29.84,NW,326,1.0,10.0,65,0.00,,,0.00,0,Wunderground v.1.15,2013-03-15 07:25:00,
2013-03-15 03:30:00,22.6,12.6,29.84,WNW,294,2.0,10.0,65,0.00,,,0.00,0,Wunderground v.1.15,2013-03-15 07:30:00,
2013-03-15 03:35:00,22.5,12.5,29.84,East,92,2.0,10.0,65,0.00,,,0.00,0,Wunderground v.1.15,2013-03-15 07:35:00,
2013-03-15 03:40:00,22.4,13.1,29.84,NE,41,4.0,5.0,67,0.00,,,0.00,0,Wunderground v.1.15,2013-03-15 07:40:00,
2013-03-15 03:45:00,22.3,12.3,29.84,North,350,2.0,5.0,65,0.00,,,0.00,0,Wunderground v.1.15,2013-03-15 07:45:00,
2013-03-15 03:50:00,22.3,12.7,29.84,WSW,250,5.0,5.0,66,0.00,,,0.00,0,Wunderground v.1.15,2013-03-15 07:50:00,
2013-03-15 03:55:00,22.2,12.2,29.84,NNW,342,0.0,11.0,65,0.00,,,0.00,0,Wunderground v.1.15,2013-03-15 07:55:00,
2013-03-15 04:00:00,22.1,12.1,29.84,SW,230,1.0,2.0,65,0.00,,,0.00,0,Wunderground v.1.15,2013-03-15 08:00:00,
2013-03-15 04:05:00,22.1,12.1,29.84,North,10,7.0,9.0,65,0.00,,,0.00,0,Wunderground v.1.15,2013-03-15 08:05:00,
2013-03-15 04:10:00,22.0,12.4,29.84,NNE,20,4.0,5.0,66,0.00,,,0.00,0,Wunderground v.1.15,2013-03-15 08:10:00,
2013-03-15 04:15:00,22.0,12.0,29.84,NNW,342,1.0,7.0,65,0.00,,,0.00,0,Wunderground v.1.15,2013-03-15 08:15:00,
2013-03-15 04:21:00,21.9,11.9,29.84,ENE,76,2.0,3.0,65,0.00,,,0.00,0,Wunderground v.1.15,2013-03-15 08:21:00,
2013-03-15 04:26:00,21.9,12.3,29.84,NNW,338,1.0,8.0,66,0.00,,,0.00,0,Wunderground v.1.15,2013-03-15 08:26:00,
2013-03-15 04:31:00,21.8,11.8,29.84,West,274,2.0,5.0,65,0.00,,,0.00,0,Wunderground v.1.15,2013-03-15 08:31:00,
2013-03-15 04:36:00,21.8,12.2,29.84,NE,35,4.0,5.0,66,0.00,,,0.00,0,Wunderground v.1.15,2013-03-15 08:36:00,
2013-03-15 04:41:00,21.7,11.7,29.84,North,5,3.0,5.0,65,0.00,,,0.00,0,Wunderground v.1.15,2013-03-15 08:41:00,
2013-03-15 04:46:00,21.7,11.7,29.84,NE,55,1.0,13.0,65,0.00,,,0.00,0,Wunderground v.1.15,2013-03-15 08:46:00,
2013-03-15 04:51:00,21.6,11.6,29.84,WNW,288,1.0,3.0,65,0.00,,,0.00,0,Wunderground v.1.15,2013-03-15 08:51:00,
2013-03-15 04:56:00,21.6,11.6,29.84,West,279,2.0,7.0,65,0.00,,,0.00,0,Wunderground v.1.15,2013-03-15 08:56:00,
2013-03-15 05:01:00,21.5,11.5,29.84,NW,309,4.0,5.0,65,0.00,,,0.00,0,Wunderground v.1.15,2013-03-15 09:01:00,
2013-03-15 05:06:00,21.4,11.5,29.84,NW,317,1.0,5.0,65,0.00,,,0.00,0,Wunderground v.1.15,2013-03-15 09:06:00,
2013-03-15 05:11:00,21.3,11.4,29.85,WSW,253,3.0,3.0,65,0.00,,,0.00,0,Wunderground v.1.15,2013-03-15 09:11:00,
2013-03-15 05:17:00,21.3,11.4,29.85,WNW,288,2.0,5.0,65,0.00,,,0.00,0,Wunderground v.1.15,2013-03-15 09:17:00,
2013-03-15 05:22:00,21.2,11.3,29.85,WNW,293,2.0,3.0,65,0.00,,,0.00,0,Wunderground v.1.15,2013-03-15 09:22:00,
2013-03-15 05:27:00,21.2,11.3,29.85,West,269,2.0,6.0,65,0.00,,,0.00,0,Wunderground v.1.15,2013-03-15 09:27:00,
2013-03-15 05:33:00,21.1,10.8,29.85,West,263,1.0,5.0,64,0.00,,,0.00,0,Wunderground v.1.15,2013-03-15 09:33:00,
2013-03-15 05:38:00,21.1,10.5,29.86,NE,35,2.0,8.0,63,0.00,,,0.00,0,Wunderground v.1.15,2013-03-15 09:38:00,
2013-03-15 05:43:00,21.0,10.7,29.86,NNW,344,0.0,2.0,64,0.00,,,0.00,0,Wunderground v.1.15,2013-03-15 09:43:00,
2013-03-15 05:49:00,21.0,10.7,29.86,NNW,337,0.0,6.0,64,0.00,,,0.00,0,Wunderground v.1.15,2013-03-15 09:49:00,
2013-03-15 05:54:00,20.9,10.6,29.86,ESE,103,1.0,2.0,64,0.00,,,0.00,0,Wunderground v.1.15,2013-03-15 09:54:00,
2013-03-15 05:59:00,20.8,10.2,29.86,NNW,342,4.0,7.0,63,0.00,,,0.00,0,Wunderground v.1.15,2013-03-15 09:59:00,
2013-03-15 06:04:00,20.8,9.8,29.86,NW,319,3.0,7.0,62,0.00,,,0.00,0,Wunderground v.1.15,2013-03-15 10:04:00,
2013-03-15 06:09:00,20.8,9.8,29.86,WNW,295,0.0,7.0,62,0.00,,,0.00,0,Wunderground v.1.15,2013-03-15 10:09:00,
2013-03-15 06:14:00,20.7,9.7,29.86,WNW,284,2.0,5.0,62,0.00,,,0.00,0,Wunderground v.1.15,2013-03-15 10:14:00,
2013-03-15 06:19:00,20.7,9.7,29.87,WNW,294,3.0,5.0,62,0.00,,,0.00,0,Wunderground v.1.15,2013-03-15 10:19:00,
2013-03-15 06:24:00,20.7,9.7,29.87,NNW,327,2.0,7.0,62,0.00,,,0.00,0,Wunderground v.1.15,2013-03-15 10:24:00,
2013-03-15 06:29:00,20.6,10.0,29.87,West,260,3.0,7.0,63,0.00,,,0.00,0,Wunderground v.1.15,2013-03-15 10:29:00,
2013-03-15 06:35:00,20.5,9.9,29.87,West,269,4.0,7.0,63,0.00,,,0.00,0,Wunderground v.1.15,2013-03-15 10:35:00,
2013-03-15 06:40:00,20.5,9.5,29.88,WSW,248,3.0,7.0,62,0.00,,,0.00,0,Wunderground v.1.15,2013-03-15 10:40:00,
2013-03-15 06:45:00,20.4,9.8,29.87,West,274,3.0,4.0,63,0.00,,,0.00,0,Wunderground v.1.15,2013-03-15 10:45:00,
2013-03-15 06:50:00,20.4,9.8,29.87,West,274,0.0,2.0,63,0.00,,,0.00,0,Wunderground v.1.15,2013-03-15 10:50:00,
2013-03-15 06:55:00,20.4,9.8,29.87,NNW,328,3.0,5.0,63,0.00,,,0.00,0,Wunderground v.1.15,2013-03-15 10:55:00,
2013-03-15 07:00:00,20.3,9.7,29.88,WNW,289,1.0,3.0,63,0.00,,,0.00,0,Wunderground v.1.15,2013-03-15 11:00:00,
2013-03-15 07:05:00,20.3,9.7,29.87,NNW,335,0.0,4.0,63,0.00,,,0.00,5,Wunderground v.1.15,2013-03-15 11:05:00,
2013-03-15 07:10:00,20.2,9.6,29.87,NNW,333,0.0,2.0,63,0.00,,,0.00,9,Wunderground v.1.15,2013-03-15 11:10:00,
2013-03-15 07:15:00,20.3,10.4,29.88,West,272,4.0,6.0,65,0.00,,,0.00,12,Wunderground v.1.15,2013-03-15 11:15:00,
2013-03-15 07:20:00,20.2,10.3,29.88,West,270,1.0,2.0,65,0.00,,,0.00,14,Wunderground v.1.15,2013-03-15 11:20:00,
2013-03-15 07:25:00,20.3,10.4,29.88,West,277,3.0,4.0,65,0.00,,,0.00,18,Wunderground v.1.15,2013-03-15 11:25:00,
2013-03-15 07:30:00,20.3,10.4,29.88,West,277,0.0,1.0,65,0.00,,,0.00,21,Wunderground v.1.15,2013-03-15 11:30:00,
2013-03-15 07:35:00,20.4,10.5,29.88,North,5,3.0,4.0,65,0.00,,,0.00,25,Wunderground v.1.15,2013-03-15 11:35:00,
2013-03-15 07:41:00,20.5,10.2,29.88,WNW,291,1.0,5.0,64,0.00,,,0.00,25,Wunderground v.1.15,2013-03-15 11:41:00,
2013-03-15 07:46:00,20.6,10.3,29.88,WNW,290,1.0,5.0,64,0.00,,,0.00,25,Wunderground v.1.15,2013-03-15 11:46:00,
2013-03-15 07:51:00,20.7,10.8,29.88,West,276,4.0,4.0,65,0.00,,,0.00,25,Wunderground v.1.15,2013-03-15 11:51:00,
2013-03-15 07:56:00,20.9,11.0,29.88,NW,309,4.0,6.0,65,0.00,,,0.00,26,Wunderground v.1.15,2013-03-15 11:56:00,
2013-03-15 08:01:00,21.1,10.8,29.88,WNW,294,1.0,3.0,64,0.00,,,0.00,26,Wunderground v.1.15,2013-03-15 12:01:00,
2013-03-15 08:06:00,21.3,11.0,29.88,West,278,4.0,5.0,64,0.00,,,0.00,49,Wunderground v.1.15,2013-03-15 12:06:00,
2013-03-15 08:11:00,21.6,11.3,29.88,West,266,2.0,3.0,64,0.00,,,0.00,40,Wunderground v.1.15,2013-03-15 12:11:00,
2013-03-15 08:16:00,21.8,11.5,29.88,WSW,257,3.0,4.0,64,0.00,,,0.00,97,Wunderground v.1.15,2013-03-15 12:16:00,
2013-03-15 08:22:00,22.2,11.5,29.88,WNW,289,2.0,3.0,63,0.00,,,0.00,81,Wunderground v.1.15,2013-03-15 12:22:00,
2013-03-15 08:27:00,22.6,11.9,29.88,WSW,252,2.0,8.0,63,0.00,,,0.00,74,Wunderground v.1.15,2013-03-15 12:27:00,
2013-03-15 08:32:00,22.9,11.8,29.88,West,266,3.0,11.0,62,0.00,,,0.00,47,Wunderground v.1.15,2013-03-15 12:32:00,
2013-03-15 08:37:00,23.1,11.6,29.88,West,269,4.0,11.0,61,0.00,,,0.00,47,Wunderground v.1.15,2013-03-15 12:37:00,
2013-03-15 08:42:00,23.1,11.3,29.88,West,279,1.0,4.0,60,0.00,,,0.00,53,Wunderground v.1.15,2013-03-15 12:42:00,
2013-03-15 08:47:00,23.2,11.7,29.88,West,264,1.0,4.0,61,0.00,,,0.00,76,Wunderground v.1.15,2013-03-15 12:47:00,
2013-03-15 08:52:00,23.3,11.4,29.88,WNW,289,4.0,6.0,60,0.00,,,0.00,60,Wunderground v.1.15,2013-03-15 12:52:00,
2013-03-15 08:57:00,23.4,11.5,29.88,West,261,2.0,7.0,60,0.00,,,0.00,53,Wunderground v.1.15,2013-03-15 12:57:00,
2013-03-15 09:02:00,23.5,11.3,29.88,WSW,257,3.0,5.0,59,0.00,,,0.00,83,Wunderground v.1.15,2013-03-15 13:02:00,
2013-03-15 09:07:00,23.7,12.2,29.88,WNW,300,0.0,7.0,61,0.00,,,0.00,97,Wunderground v.1.15,2013-03-15 13:07:00,
2013-03-15 09:12:00,24.0,12.1,29.88,West,271,2.0,3.0,60,0.00,,,0.00,90,Wunderground v.1.15,2013-03-15 13:12:00,
2013-03-15 09:18:00,24.3,12.4,29.88,West,266,1.0,6.0,60,0.00,,,0.00,51,Wunderground v.1.15,2013-03-15 13:18:00,
2013-03-15 09:23:00,24.5,12.2,29.88,WNW,298,0.0,6.0,59,0.00,,,0.00,62,Wunderground v.1.15,2013-03-15 13:23:00,
2013-03-15 09:28:00,24.7,12.4,29.88,West,276,1.0,7.0,59,0.00,,,0.00,56,Wunderground v.1.15,2013-03-15 13:28:00,
2013-03-15 09:33:00,24.7,11.6,29.88,NNW,330,1.0,5.0,57,0.00,,,0.00,60,Wunderground v.1.15,2013-03-15 13:33:00,
2013-03-15 09:38:00,24.9,11.8,29.87,WNW,294,2.0,5.0,57,0.00,,,0.00,65,Wunderground v.1.15,2013-03-15 13:38:00,
2013-03-15 09:43:00,25.1,12.0,29.87,NW,317,2.0,5.0,57,0.00,,,0.00,69,Wunderground v.1.15,2013-03-15 13:43:00,
2013-03-15 09:49:00,25.5,12.0,29.87,West,281,2.0,7.0,56,0.00,,,0.00,81,Wunderground v.1.15,2013-03-15 13:49:00,
2013-03-15 09:54:00,25.8,11.8,29.87,West,266,1.0,9.0,55,0.00,,,0.00,76,Wunderground v.1.15,2013-03-15 13:54:00,
2013-03-15 09:59:00,26.2,12.2,29.87,WNW,285,3.0,9.0,55,0.00,,,0.00,306,Wunderground v.1.15,2013-03-15 13:59:00,
2013-03-15 10:04:00,26.7,12.3,29.87,West,265,2.0,7.0,54,0.00,,,0.00,185,Wunderground v.1.15,2013-03-15 14:04:00,
2013-03-15 10:09:00,27.2,12.7,29.87,East,98,2.0,7.0,54,0.00,,,0.00,183,Wunderground v.1.15,2013-03-15 14:09:00,
2013-03-15 10:14:00,27.7,12.3,29.87,NNW,340,0.0,6.0,52,0.00,,,0.00,251,Wunderground v.1.15,2013-03-15 14:14:00,
2013-03-15 10:19:00,28.2,12.8,29.86,WNW,301,2.0,6.0,52,0.00,,,0.00,207,Wunderground v.1.15,2013-03-15 14:19:00,
2013-03-15 10:24:00,28.6,13.2,29.86,NNW,345,3.0,7.0,52,0.00,,,0.00,237,Wunderground v.1.15,2013-03-15 14:24:00,
2013-03-15 10:29:00,28.9,12.6,29.86,WNW,292,1.0,7.0,50,0.00,,,0.00,246,Wunderground v.1.15,2013-03-15 14:29:00,
2013-03-15 10:34:00,29.2,12.8,29.86,West,278,3.0,9.0,50,0.00,,,0.00,213,Wunderground v.1.15,2013-03-15 14:34:00,
2013-03-15 10:39:00,29.4,12.6,29.85,West,265,5.0,9.0,49,0.00,,,0.00,211,Wunderground v.1.15,2013-03-15 14:39:00,
2013-03-15 10:44:00,29.3,12.9,29.85,WSW,252,6.0,6.0,50,0.00,,,0.00,225,Wunderground v.1.15,2013-03-15 14:44:00,
2013-03-15 10:49:00,29.3,12.5,29.85,West,278,3.0,6.0,49,0.00,,,0.00,271,Wunderground v.1.15,2013-03-15 14:49:00,
2013-03-15 10:54:00,29.5,13.6,29.85,West,269,4.0,6.0,51,0.00,,,0.00,253,Wunderground v.1.15,2013-03-15 14:54:00,
2013-03-15 11:00:00,29.9,13.0,29.84,WSW,256,1.0,2.0,49,0.00,,,0.00,364,Wunderground v.1.15,2013-03-15 15:00:00,
2013-03-15 11:05:00,30.6,14.1,29.84,NNW,336,0.0,5.0,50,0.00,,,0.00,483,Wunderground v.1.15,2013-03-15 15:05:00,
2013-03-15 11:10:00,31.7,13.7,29.84,ESE,110,6.0,9.0,47,0.00,,,0.00,621,Wunderground v.1.15,2013-03-15 15:10:00,
2013-03-15 11:15:00,32.3,13.3,29.84,WNW,291,1.0,9.0,45,0.00,,,0.00,396,Wunderground v.1.15,2013-03-15 15:15:00,
2013-03-15 11:20:00,32.8,13.2,29.83,NW,318,1.0,4.0,44,0.00,,,0.00,230,Wunderground v.1.15,2013-03-15 15:20:00,
2013-03-15 11:25:00,33.0,13.4,29.84,West,273,3.0,7.0,44,0.00,,,0.00,320,Wunderground v.1.15,2013-03-15 15:25:00,
2013-03-15 11:30:00,33.3,13.2,29.83,WNW,298,5.0,5.0,43,0.00,,,0.00,471,Wunderground v.1.15,2013-03-15 15:30:00,
2013-03-15 11:35:00,33.5,12.8,29.83,WSW,238,2.0,10.0,42,0.00,,,0.00,540,Wunderground v.1.15,2013-03-15 15:35:00,
2013-03-15 11:40:00,33.9,12.6,29.83,West,264,3.0,4.0,41,0.00,,,0.00,417,Wunderground v.1.15,2013-03-15 15:40:00,
2013-03-15 11:45:00,34.1,12.3,29.83,West,262,3.0,12.0,40,0.00,,,0.00,469,Wunderground v.1.15,2013-03-15 15:45:00,
2013-03-15 11:50:00,34.4,13.1,29.82,NNE,25,3.0,4.0,41,0.00,,,0.00,288,Wunderground v.1.15,2013-03-15 15:50:00,
2013-03-15 11:55:00,34.6,13.3,29.82,West,263,4.0,7.0,41,0.00,,,0.00,362,Wunderground v.1.15,2013-03-15 15:55:00,
2013-03-15 12:00:00,34.8,13.5,29.82,West,272,4.0,5.0,41,0.00,,,0.00,364,Wunderground v.1.15,2013-03-15 16:00:00,
2013-03-15 12:05:00,35.0,12.5,29.82,West,259,2.0,8.0,39,0.00,,,0.00,346,Wunderground v.1.15,2013-03-15 16:05:00,
2013-03-15 12:10:00,35.2,13.3,29.81,West,266,6.0,6.0,40,0.00,,,0.00,700,Wunderground v.1.15,2013-03-15 16:10:00,
2013-03-15 12:16:00,35.9,15.0,29.81,West,259,4.0,6.0,42,0.00,,,0.00,554,Wunderground v.1.15,2013-03-15 16:16:00,
2013-03-15 12:21:00,36.6,14.5,29.81,WNW,284,2.0,4.0,40,0.00,,,0.00,483,Wunderground v.1.15,2013-03-15 16:21:00,
2013-03-15 12:25:00,37.2,13.9,29.80,West,260,4.0,5.0,38,0.00,,,0.00,443,Wunderground v.1.15,2013-03-15 16:25:00,
2013-03-15 12:31:00,37.7,13.7,29.80,WSW,238,2.0,6.0,37,0.00,,,0.00,461,Wunderground v.1.15,2013-03-15 16:31:00,
2013-03-15 12:37:00,37.7,13.1,29.80,SW,219,6.0,9.0,36,0.00,,,0.00,381,Wunderground v.1.15,2013-03-15 16:37:00,
2013-03-15 12:42:00,38.0,14.0,29.79,WNW,301,6.0,9.0,37,0.00,,,0.00,512,Wunderground v.1.15,2013-03-15 16:42:00,
2013-03-15 12:47:00,38.6,13.9,29.79,SW,223,3.0,9.0,36,0.00,,,0.00,731,Wunderground v.1.15,2013-03-15 16:47:00,
2013-03-15 12:52:00,39.0,14.3,29.78,West,269,9.0,9.0,36,0.00,,,0.00,687,Wunderground v.1.15,2013-03-15 16:52:00,
2013-03-15 12:58:00,39.3,13.9,29.78,SW,225,5.0,11.0,35,0.00,,,0.00,534,Wunderground v.1.15,2013-03-15 16:58:00,
2013-03-15 13:03:00,39.4,13.3,29.78,West,269,3.0,12.0,34,0.00,,,0.00,587,Wunderground v.1.15,2013-03-15 17:03:00,
2013-03-15 13:08:00,39.4,14.6,29.77,SW,233,4.0,12.0,36,0.00,,,0.00,666,Wunderground v.1.15,2013-03-15 17:08:00,
2013-03-15 13:13:00,39.6,13.5,29.77,West,259,4.0,10.0,34,0.00,,,0.00,487,Wunderground v.1.15,2013-03-15 17:13:00,
2013-03-15 13:18:00,39.8,13.0,29.76,West,262,0.0,10.0,33,0.00,,,0.00,230,Wunderground v.1.15,2013-03-15 17:18:00,
2013-03-15 13:23:00,39.9,13.8,29.76,West,274,5.0,11.0,34,0.00,,,0.00,190,Wunderground v.1.15,2013-03-15 17:23:00,
2013-03-15 13:28:00,39.9,13.8,29.76,WNW,298,10.0,11.0,34,0.00,,,0.00,281,Wunderground v.1.15,2013-03-15 17:28:00,
2013-03-15 13:33:00,39.8,13.7,29.76,West,265,8.0,8.0,34,0.00,,,0.00,223,Wunderground v.1.15,2013-03-15 17:33:00,
2013-03-15 13:38:00,39.6,13.5,29.75,West,268,3.0,12.0,34,0.00,,,0.00,220,Wunderground v.1.15,2013-03-15 17:38:00,
2013-03-15 13:43:00,39.5,13.4,29.75,WNW,284,4.0,7.0,34,0.00,,,0.00,218,Wunderground v.1.15,2013-03-15 17:43:00,
2013-03-15 13:48:00,39.3,12.6,29.75,SW,234,6.0,10.0,33,0.00,,,0.00,209,Wunderground v.1.15,2013-03-15 17:48:00,
2013-03-15 13:53:00,39.2,13.8,29.74,West,259,3.0,7.0,35,0.00,,,0.00,193,Wunderground v.1.15,2013-03-15 17:53:00,
2013-03-15 13:58:00,39.2,13.8,29.74,WNW,284,1.0,7.0,35,0.00,,,0.00,272,Wunderground v.1.15,2013-03-15 17:58:00,
2013-03-15 14:03:00,39.3,13.9,29.74,NW,304,4.0,11.0,35,0.00,,,0.00,269,Wunderground v.1.15,2013-03-15 18:03:00,
2013-03-15 14:08:00,39.3,13.2,29.73,West,271,3.0,11.0,34,0.00,,,0.00,202,Wunderground v.1.15,2013-03-15 18:08:00,
2013-03-15 14:13:00,39.2,13.1,29.72,SW,236,2.0,14.0,34,0.00,,,0.00,209,Wunderground v.1.15,2013-03-15 18:13:00,
2013-03-15 14:18:00,39.2,14.4,29.72,SW,236,3.0,14.0,36,0.00,,,0.00,197,Wunderground v.1.15,2013-03-15 18:18:00,
2013-03-15 14:23:00,39.1,13.7,29.71,SW,236,3.0,9.0,35,0.00,,,0.00,192,Wunderground v.1.15,2013-03-15 18:23:00,
2013-03-15 14:29:00,39.0,13.6,29.71,WSW,241,2.0,9.0,35,0.00,,,0.00,204,Wunderground v.1.15,2013-03-15 18:29:00,
2013-03-15 14:34:00,38.9,15.4,29.71,WSW,244,3.0,4.0,38,0.00,,,0.00,192,Wunderground v.1.15,2013-03-15 18:34:00,
2013-03-15 14:39:00,38.9,12.9,29.71,WSW,258,4.0,12.0,34,0.00,,,0.00,229,Wunderground v.1.15,2013-03-15 18:39:00,
2013-03-15 14:44:00,38.8,12.8,29.71,West,268,2.0,7.0,34,0.00,,,0.00,243,Wunderground v.1.15,2013-03-15 18:44:00,
2013-03-15 14:49:00,38.8,14.7,29.71,SSW,213,4.0,9.0,37,0.00,,,0.00,334,Wunderground v.1.15,2013-03-15 18:49:00,
2013-03-15 14:54:00,39.0,14.3,29.70,SW,225,4.0,9.0,36,0.00,,,0.00,424,Wunderground v.1.15,2013-03-15 18:54:00,
2013-03-15 14:59:00,39.3,13.9,29.70,West,266,0.0,12.0,35,0.00,,,0.00,288,Wunderground v.1.15,2013-03-15 18:59:00,
2013-03-15 15:04:00,39.7,14.2,29.70,SSW,207,0.0,5.0,35,0.00,,,0.00,475,Wunderground v.1.15,2013-03-15 19:04:00,
2013-03-15 15:09:00,40.1,15.2,29.69,West,279,2.0,7.0,36,0.00,,,0.00,432,Wunderground v.1.15,2013-03-15 19:09:00,
2013-03-15 15:14:00,40.5,16.2,29.69,WSW,245,9.0,9.0,37,0.00,,,0.00,364,Wunderground v.1.15,2013-03-15 19:14:00,
2013-03-15 15:19:00,40.8,16.5,29.69,WSW,247,3.0,11.0,37,0.00,,,0.00,431,Wunderground v.1.15,2013-03-15 19:19:00,
2013-03-15 15:24:00,41.2,16.9,29.69,West,280,3.0,10.0,37,0.00,,,0.00,346,Wunderground v.1.15,2013-03-15 19:24:00,
2013-03-15 15:29:00,41.5,17.1,29.69,WSW,250,3.0,10.0,37,0.00,,,0.00,334,Wunderground v.1.15,2013-03-15 19:29:00,
2013-03-15 15:35:00,41.8,17.4,29.69,West,271,4.0,13.0,37,0.00,,,0.00,165,Wunderground v.1.15,2013-03-15 19:35:00,
2013-03-15 15:40:00,41.9,18.7,29.69,West,261,6.0,13.0,39,0.00,,,0.00,272,Wunderground v.1.15,2013-03-15 19:40:00,
2013-03-15 15:44:00,41.8,18.6,29.69,West,275,4.0,10.0,39,0.00,,,0.00,253,Wunderground v.1.15,2013-03-15 19:44:00,
2013-03-15 15:49:00,41.6,17.8,29.69,WNW,286,7.0,10.0,38,0.00,,,0.00,174,Wunderground v.1.15,2013-03-15 19:49:00,
2013-03-15 15:55:00,41.6,19.0,29.69,WNW,296,2.0,12.0,40,0.00,,,0.00,352,Wunderground v.1.15,2013-03-15 19:55:00,
2013-03-15 16:00:00,41.6,18.4,29.68,West,267,5.0,14.0,39,0.00,,,0.00,297,Wunderground v.1.15,2013-03-15 20:00:00,
2013-03-15 16:05:00,41.5,18.9,29.68,WSW,255,7.0,14.0,40,0.00,,,0.00,364,Wunderground v.1.15,2013-03-15 20:05:00,
2013-03-15 16:10:00,41.4,18.3,29.68,West,266,2.0,14.0,39,0.00,,,0.00,338,Wunderground v.1.15,2013-03-15 20:10:00,
2013-03-15 16:15:00,41.3,17.6,29.68,WSW,242,3.0,8.0,38,0.00,,,0.00,111,Wunderground v.1.15,2013-03-15 20:15:00,
2013-03-15 16:20:00,41.0,18.5,29.67,West,264,6.0,8.0,40,0.00,,,0.00,84,Wunderground v.1.15,2013-03-15 20:20:00,
2013-03-15 16:25:00,40.8,18.3,29.67,WSW,258,3.0,11.0,40,0.00,,,0.00,53,Wunderground v.1.15,2013-03-15 20:25:00,
2013-03-15 16:30:00,40.6,18.7,29.67,West,278,3.0,5.0,41,0.00,,,0.00,86,Wunderground v.1.15,2013-03-15 20:30:00,
2013-03-15 16:35:00,40.5,18.6,29.67,West,263,3.0,5.0,41,0.00,,,0.00,97,Wunderground v.1.15,2013-03-15 20:35:00,
2013-03-15 16:40:00,40.5,18.6,29.66,SW,224,2.0,3.0,41,0.00,,,0.00,69,Wunderground v.1.15,2013-03-15 20:40:00,
2013-03-15 16:45:00,40.5,19.2,29.66,WSW,243,4.0,8.0,42,0.00,,,0.00,53,Wunderground v.1.15,2013-03-15 20:45:00,
2013-03-15 16:50:00,40.5,19.2,29.65,WSW,240,4.0,11.0,42,0.00,,,0.00,91,Wunderground v.1.15,2013-03-15 20:50:00,
2013-03-15 16:55:00,40.5,19.7,29.65,WNW,288,6.0,16.0,43,0.00,,,0.00,67,Wunderground v.1.15,2013-03-15 20:55:00,
2013-03-15 17:00:00,40.5,20.3,29.65,West,259,6.0,8.0,44,0.00,,,0.00,54,Wunderground v.1.15,2013-03-15 21:00:00,
2013-03-15 17:05:00,40.4,20.7,29.65,NW,304,10.0,15.0,45,0.00,,,0.00,54,Wunderground v.1.15,2013-03-15 21:05:00,
2013-03-15 17:10:00,40.4,20.2,29.65,SW,231,5.0,7.0,44,0.00,,,0.00,70,Wunderground v.1.15,2013-03-15 21:10:00,
2013-03-15 17:15:00,40.3,20.6,29.65,SW,221,5.0,8.0,45,0.00,,,0.00,95,Wunderground v.1.15,2013-03-15 21:15:00,
2013-03-15 17:20:00,40.3,21.6,29.65,WSW,257,6.0,7.0,47,0.00,,,0.00,65,Wunderground v.1.15,2013-03-15 21:20:00,
2013-03-15 17:25:00,40.2,23.0,29.65,SW,234,4.0,16.0,50,0.00,,,0.00,58,Wunderground v.1.15,2013-03-15 21:25:00,
2013-03-15 17:30:00,40.0,23.8,29.66,SE,144,7.0,11.0,52,0.00,,,0.00,53,Wunderground v.1.15,2013-03-15 21:30:00,
2013-03-15 17:35:00,39.7,24.4,29.66,WNW,284,9.0,11.0,54,0.00,,,0.00,51,Wunderground v.1.15,2013-03-15 21:35:00,
2013-03-15 17:40:00,39.5,25.1,29.66,West,265,4.0,8.0,56,0.00,,,0.00,44,Wunderground v.1.15,2013-03-15 21:40:00,
2013-03-15 17:45:00,39.2,25.2,29.66,WSW,254,5.0,14.0,57,0.00,,,0.00,46,Wunderground v.1.15,2013-03-15 21:45:00,
2013-03-15 17:50:00,39.0,25.0,29.66,West,266,3.0,7.0,57,0.00,,,0.00,33,Wunderground v.1.15,2013-03-15 21:50:00,
2013-03-15 17:55:00,38.9,24.9,29.66,West,269,6.0,14.0,57,0.00,,,0.00,30,Wunderground v.1.15,2013-03-15 21:55:00,
2013-03-15 18:01:00,38.6,25.5,29.66,WNW,290,6.0,6.0,59,0.00,,,0.00,30,Wunderground v.1.15,2013-03-15 22:01:00,
2013-03-15 18:06:00,38.4,25.3,29.66,West,272,3.0,10.0,59,0.00,,,0.00,26,Wunderground v.1.15,2013-03-15 22:06:00,
2013-03-15 18:11:00,38.3,25.6,29.66,WNW,288,1.0,7.0,60,0.00,,,0.00,26,Wunderground v.1.15,2013-03-15 22:11:00,
2013-03-15 18:17:00,38.1,25.4,29.66,WSW,242,4.0,11.0,60,0.00,,,0.00,21,Wunderground v.1.15,2013-03-15 22:17:00,
2013-03-15 18:23:00,38.0,25.3,29.66,SW,222,4.0,4.0,60,0.00,,,0.00,21,Wunderground v.1.15,2013-03-15 22:23:00,
2013-03-15 18:28:00,38.0,25.7,29.66,West,269,2.0,7.0,61,0.00,,,0.00,19,Wunderground v.1.15,2013-03-15 22:28:00,